Retour au catalogue

STARLINK-31974

ActifCommunicationsVLEO
NORAD 59885·PAYLOAD·🇺🇸 United States

Lancé May 28, 2024 depuis Cape Canaveral Space Force Station

Loading…

Prochains Passages (prochaines 24 heures)

TLE

FraisSource: CelesTrak SupGP

Époque: Sep 14, 2026, 22:37 UTC

1 59885C 24100A   26257.94284722 -.00037024  00000+0 -13412-2 0  2579
2 59885  42.9994 136.5996 0001302 267.7886 346.2179 15.27591499    18

Suivez STARLINK-31974 en temps réel avec AllMySat

Download on the App Store